Colorado City, AZ

2:25 AM MST on November 14, 2019 (GMT -0700)
Colorado City Municipal

Weather History for KAZC - September, 2019

Change the Weather History Date:

Wednesday, September 4, 2019

  Actual Average (KSGU) Record (KSGU)
Temperature  
Mean Temperature 80 °F -  
Max Temperature 98 °F 97 °F 107 °F (1947)
Min Temperature 62 °F 64 °F 48 °F (1961)
Cooling Degree Days 15    
Growing Degree Days 30 (Base 50)    
Moisture  
Dew Point 46 °F    
Average Humidity 34    
Maximum Humidity 53    
Minimum Humidity 14    
Precipitation  
Precipitation 0.00 in - - ()
Sea Level Pressure  
Sea Level Pressure 30.17 in    
Wind  
Wind Speed 4 mph (SE)    
Max Wind Speed 26 mph    
Max Gust Speed 39 mph    
Visibility 10 miles    
Events Thunderstorm    
Averages and records for this station are not official NWS values.
T = Trace of Precipitation, MM = Missing Value Source: NWS Daily Summary

Daily Weather History Graph

Daily Weather History Graph

Search for Another Location

Airport or City:

Astronomy

Sep. 04, 2019 Rise Set
Actual Time 6:05 AM MST 6:56 PM MST
Civil Twilight 5:38 AM MST 7:22 PM MST
Nautical Twilight 5:07 AM MST 7:53 PM MST
Astronomical Twilight 4:35 AM MST 8:26 PM MST
Moon 12:02 PM MST (9/4) 10:42 PM MST (9/4)
Length of Visible Light 13h 43m
Length of Day
12h 51m
Waxing Crescent, 36% of the Moon is Illuminated
Sep 4
Waxing Crescent
Sep 5
First Quarter
Sep 13
Full
Sep 21
Last Quarter
Sep 28
New

Hourly Weather History & Observations

Time (MST) Temp. Heat Index Dew Point Humidity Pressure Visibility Wind Dir Wind Speed Gust Speed Precip Events Conditions
12:15 AM 69.8 °F - 44.6 °F 40% 30.16 in - ESE 3.5 mph - N/A   Clear
12:35 AM 69.8 °F - 42.8 °F 38% 30.16 in 10.0 mi Calm Calm - N/A   Clear
12:55 AM 68.0 °F - 42.8 °F 40% 30.16 in 10.0 mi SE 3.5 mph - N/A   Clear
1:15 AM 68.0 °F - 42.8 °F 40% 30.16 in 10.0 mi South 3.5 mph - N/A   Clear
1:35 AM 68.0 °F - 42.8 °F 40% 30.15 in 10.0 mi Calm Calm - N/A   Clear
1:55 AM 64.4 °F - 42.8 °F 45% 30.16 in 10.0 mi SE 4.6 mph - N/A   Clear
2:15 AM 64.4 °F - 42.8 °F 45% 30.15 in - SSE 3.5 mph - N/A   Clear
2:35 AM 62.6 °F - 42.8 °F 48% 30.15 in 10.0 mi SE 4.6 mph - N/A   Clear
2:55 AM 64.4 °F - 44.6 °F 49% 30.16 in - SSE 5.8 mph - N/A   Clear
3:15 AM 68.0 °F - 44.6 °F 43% 30.15 in 10.0 mi ESE 6.9 mph - N/A   Clear
3:35 AM 68.0 °F - 44.6 °F 43% 30.16 in 10.0 mi SE 4.6 mph - N/A   Clear
3:55 AM 66.2 °F - 44.6 °F 46% 30.16 in 10.0 mi East 5.8 mph - N/A   Clear
4:15 AM 68.0 °F - 44.6 °F 43% 30.16 in 10.0 mi East 4.6 mph - N/A   Clear
4:35 AM 68.0 °F - 44.6 °F 43% 30.16 in 10.0 mi Calm Calm - N/A   Clear
4:55 AM 68.0 °F - 44.6 °F 43% 30.16 in 10.0 mi ESE 3.5 mph - N/A   Clear
5:15 AM 68.0 °F - 44.6 °F 43% 30.16 in 10.0 mi Calm Calm - N/A   Clear
5:35 AM 68.0 °F - 44.6 °F 43% 30.17 in - SE 4.6 mph - N/A   Clear
5:55 AM 66.2 °F - 46.4 °F 49% 30.17 in 10.0 mi ESE 5.8 mph - N/A   Clear
6:15 AM 66.2 °F - 44.6 °F 46% 30.18 in 10.0 mi SSE 4.6 mph - N/A   Clear
6:35 AM 68.0 °F - 46.4 °F 46% 30.18 in 10.0 mi ESE 4.6 mph - N/A   Clear
6:55 AM 69.8 °F - 46.4 °F 43% 30.19 in 10.0 mi SSE 3.5 mph - N/A   Clear
7:15 AM 71.6 °F - 46.4 °F 41% 30.19 in 10.0 mi Calm Calm - N/A   Clear
7:35 AM 71.6 °F - 46.4 °F 41% 30.19 in 10.0 mi Calm Calm - N/A   Clear
7:55 AM 73.4 °F - 46.4 °F 38% 30.20 in 10.0 mi Calm Calm - N/A   Clear
8:15 AM 78.8 °F - 46.4 °F 32% 30.20 in 10.0 mi Calm Calm - N/A   Clear
8:35 AM 80.6 °F - 46.4 °F 30% 30.19 in 10.0 mi Calm Calm - N/A   Clear
8:55 AM 86.0 °F - 44.6 °F 23% 30.19 in 10.0 mi Calm Calm - N/A   Clear
9:15 AM 87.8 °F - 44.6 °F 22% 30.19 in 10.0 mi Calm Calm - N/A   Clear
9:35 AM 89.6 °F - 42.8 °F 20% 30.19 in 10.0 mi Calm Calm - N/A   Clear
9:55 AM 89.6 °F - 42.8 °F 20% 30.19 in 10.0 mi Calm Calm - N/A   Clear
10:15 AM 91.4 °F - 41.0 °F 17% 30.19 in 10.0 mi Calm Calm - N/A   Clear
10:35 AM 95.0 °F - 41.0 °F 15% 30.19 in 10.0 mi Calm Calm - N/A   Clear
10:55 AM 95.0 °F - 41.0 °F 15% 30.19 in 10.0 mi Calm Calm - N/A   Scattered Clouds
11:15 AM 95.0 °F - 42.8 °F 16% 30.19 in 10.0 mi North 4.6 mph - N/A   Scattered Clouds
11:35 AM 95.0 °F - 41.0 °F 15% 30.18 in 10.0 mi Calm Calm - N/A   Clear
11:55 AM 95.0 °F - 41.0 °F 15% 30.17 in 10.0 mi SSW 3.5 mph - N/A   Scattered Clouds
12:15 PM 96.8 °F - 41.0 °F 15% 30.17 in 10.0 mi NW 3.5 mph - N/A   Clear
12:35 PM 95.0 °F - 41.0 °F 15% 30.17 in 10.0 mi Calm Calm - N/A   Clear
12:55 PM 95.0 °F - 41.0 °F 15% 30.16 in 10.0 mi SW 4.6 mph - N/A   Clear
1:15 PM 95.0 °F - 41.0 °F 15% 30.16 in 10.0 mi Calm Calm - N/A   Clear
1:35 PM 96.8 °F - 41.0 °F 15% 30.15 in 10.0 mi SW 5.8 mph - N/A   Clear
1:55 PM 98.6 °F - 41.0 °F 14% 30.14 in 10.0 mi NW 8.1 mph 16.1 mph N/A   Clear
2:15 PM 96.8 °F - 41.0 °F 15% 30.13 in 10.0 mi West 9.2 mph - N/A   Clear
2:35 PM 95.0 °F - 41.0 °F 15% 30.13 in 10.0 mi West 5.8 mph - N/A   Clear
2:55 PM 98.6 °F - 41.0 °F 14% 30.13 in 10.0 mi WSW 5.8 mph - N/A   Clear
3:15 PM 98.6 °F - 41.0 °F 14% 30.12 in 10.0 mi NNW 5.8 mph - N/A   Clear
3:35 PM 98.6 °F - 41.0 °F 14% 30.11 in 10.0 mi Calm Calm - N/A   Clear
3:55 PM 96.8 °F - 41.0 °F 15% 30.12 in 10.0 mi ESE 15.0 mph 18.4 mph N/A   Clear
4:15 PM 91.4 °F - 44.6 °F 20% 30.14 in 10.0 mi SSE 26.5 mph 39.1 mph N/A   Scattered Clouds
4:35 PM 86.0 °F - 51.8 °F 31% 30.15 in 10.0 mi SSW 20.7 mph 31.1 mph N/A   Scattered Clouds
4:55 PM 82.4 °F 81.4 °F 53.6 °F 37% 30.15 in 10.0 mi SW 12.7 mph 25.3 mph N/A   Scattered Clouds
5:15 PM 82.4 °F - 51.8 °F 35% 30.15 in 10.0 mi SW 13.8 mph 17.3 mph N/A   Scattered Clouds
5:35 PM 84.2 °F - 50.0 °F 30% 30.15 in 10.0 mi WSW 13.8 mph - N/A   Clear
5:55 PM 84.2 °F - 50.0 °F 30% 30.16 in 10.0 mi NW 10.4 mph - N/A Thunderstorm Clear
6:15 PM 84.2 °F - 50.0 °F 30% 30.16 in 10.0 mi NNW 5.8 mph - N/A   Clear
6:35 PM 84.2 °F - 50.0 °F 30% 30.17 in 10.0 mi NNW 3.5 mph - N/A   Clear
6:55 PM 82.4 °F - 51.8 °F 35% 30.20 in 10.0 mi SSW 15.0 mph 19.6 mph N/A   Scattered Clouds
7:15 PM 78.8 °F - 53.6 °F 42% 30.20 in 10.0 mi SSE 3.5 mph - N/A   Scattered Clouds
7:35 PM 77.0 °F - 53.6 °F 44% 30.21 in - Calm Calm - N/A   Clear
7:55 PM 73.4 °F - 53.6 °F 50% 30.22 in - East 6.9 mph - N/A   Clear
8:15 PM 73.4 °F - 53.6 °F 50% 30.22 in - NE 5.8 mph - N/A   Clear
8:35 PM 73.4 °F - 51.8 °F 47% 30.21 in - NE 6.9 mph - N/A   Clear
8:55 PM 71.6 °F - 51.8 °F 50% 30.22 in - South 4.6 mph - N/A   Clear
9:15 PM 69.8 °F - 51.8 °F 53% 30.22 in - ENE 3.5 mph - N/A   Clear
9:35 PM 71.6 °F - 51.8 °F 50% 30.22 in - NE 8.1 mph - N/A   Clear
9:55 PM 69.8 °F - 51.8 °F 53% 30.22 in - South 5.8 mph - N/A   Clear
10:15 PM 71.6 °F - 51.8 °F 50% 30.22 in - ESE 8.1 mph - N/A   Clear
10:35 PM 73.4 °F - 53.6 °F 50% 30.21 in - ESE 6.9 mph - N/A   Clear
10:55 PM 73.4 °F - 51.8 °F 47% 30.21 in - SSE 8.1 mph - N/A   Clear
11:15 PM 73.4 °F - 51.8 °F 47% 30.21 in - SSE 3.5 mph - N/A   Clear
11:35 PM 73.4 °F - 51.8 °F 47% 30.21 in - SE 9.2 mph - N/A   Clear
11:55 PM 73.4 °F - 50.0 °F 44% 30.21 in - East 5.8 mph - N/A   Clear